Change the Weather History Date:

Tuesday, November 6, 2012

  Actual Average (KARR) Record (KARR)
Temperature  
Mean Temperature 34 °F 43 °F  
Max Temperature 40 °F 53 °F 64 °F (2001)
Min Temperature 27 °F 32 °F 15 °F (2010)
Degree Days  
Heating Degree Days 32 22  
Month to date heating degree days 126  
Since 1 July heating degree days 733  
Cooling Degree Days 0 0  
Month to date cooling degree days 0  
Year to date cooling degree days 655  
Moisture  
Dew Point 32 °F    
Average Humidity 89    
Maximum Humidity 92    
Minimum Humidity 81    
Precipitation  
Precipitation 0.11 in 0.12 in 1.58 in (2000)
Month to date precipitation 0.75  
Year to date precipitation 32.51  
Sea Level Pressure  
Sea Level Pressure 29.95 in    
Wind  
Wind Speed 4 mph (SSE)    
Max Wind Speed 13 mph    
Max Gust Speed -    
Visibility 5 miles    
Events Fog , Rain    
T = Trace of Precipitation, MM = Missing Value Source: NWS Daily Summary

Daily Weather History Graph

Daily Weather History Graph

Search for Another Location

Airport or City:

Trip Planner

Search our weather history database for the weather conditions in past years. The results will help you decide how hot, cold, wet, or windy it might be!

Date:

Astronomy

Nov. 06, 2012 Rise Set
Actual Time 6:34 AM CST 4:42 PM CST
Civil Twilight 6:04 AM CST 5:11 PM CST
Nautical Twilight 5:31 AM CST 5:44 PM CST
Astronomical Twilight 4:58 AM CST 6:17 PM CST
Moon 11:22 PM CST 12:25 PM CST
Length of Visible Light 11h 06m
Length of Day
10h 08m
Waning Gibbous, 53% of the Moon is Illuminated
Nov 6
Waning Gibbous
Nov 6
Last Quarter
Nov 13
New
Nov 20
First Quarter
Nov 28
Full

Hourly Weather History & Observations

Time (CST) Temp. Windchill Dew Point Humidity Pressure Visibility Wind Dir Wind Speed Gust Speed Precip Events Conditions
12:15 AM 31.1 °F - 27.3 °F 86% 30.10 in 10.0 mi Calm Calm - N/A   Clear
12:35 AM 30.6 °F - 26.6 °F 85% 30.09 in 10.0 mi Calm Calm - N/A   Clear
12:55 AM 29.1 °F - 25.5 °F 86% 30.09 in 10.0 mi Calm Calm - N/A   Clear
1:15 AM 31.6 °F - 27.5 °F 85% 30.09 in 10.0 mi Calm Calm - N/A   Clear
1:35 AM 31.8 °F - 27.5 °F 84% 30.08 in 10.0 mi Calm Calm - N/A   Clear
1:55 AM 31.8 °F - 27.5 °F 84% 30.09 in 10.0 mi Calm Calm - N/A   Clear
2:15 AM 30.9 °F - 27.3 °F 86% 30.08 in 10.0 mi Calm Calm - N/A   Clear
2:35 AM 30.2 °F - 26.2 °F 85% 30.08 in 10.0 mi Calm Calm - N/A   Mostly Cloudy
2:55 AM 31.1 °F - 27.1 °F 85% 30.06 in 10.0 mi Calm Calm - N/A   Mostly Cloudy
3:15 AM 30.0 °F - 26.4 °F 86% 30.06 in 10.0 mi Calm Calm - N/A   Scattered Clouds
3:35 AM 30.7 °F - 27.1 °F 86% 30.05 in 10.0 mi Calm Calm - N/A   Clear
3:55 AM 27.5 °F 23.6 °F 23.7 °F 86% 30.04 in 10.0 mi SSE 3.5 mph - N/A   Clear
4:15 AM 28.2 °F 24.4 °F 24.8 °F 87% 30.04 in 10.0 mi SSE 3.5 mph - N/A   Clear
4:35 AM 29.5 °F - 26.2 °F 88% 30.04 in 10.0 mi Calm Calm - N/A   Clear
4:55 AM 27.3 °F 23.4 °F 24.3 °F 88% 30.04 in 10.0 mi SSE 3.5 mph - N/A   Clear
5:35 AM 27.0 °F 20.5 °F 23.7 °F 88% 30.02 in 7.0 mi SSE 5.8 mph - N/A   Clear
5:55 AM 27.9 °F 21.5 °F 24.8 °F 88% 30.01 in 7.0 mi SSE 5.8 mph - N/A   Clear
6:15 AM 29.1 °F 22.1 °F 26.1 °F 88% 30.00 in 7.0 mi SSE 6.9 mph - N/A   Clear
6:35 AM 30.2 °F 24.3 °F 27.5 °F 90% 30.00 in 5.0 mi SSE 5.8 mph - N/A   Clear
6:55 AM 29.8 °F 24.9 °F 26.8 °F 88% 30.01 in 5.0 mi South 4.6 mph - N/A   Clear
7:15 AM 32.2 °F 25.8 °F 29.7 °F 90% 30.01 in 4.0 mi SSE 6.9 mph - N/A   Mostly Cloudy
7:35 AM 32.9 °F 26.7 °F 30.7 °F 92% 30.01 in 4.0 mi SSE 6.9 mph - N/A   Overcast
7:55 AM 32.9 °F 26.7 °F 30.6 °F 91% 30.01 in 5.0 mi South 6.9 mph - N/A   Overcast
8:15 AM 33.1 °F 26.1 °F 30.7 °F 91% 30.00 in 5.0 mi SSE 8.1 mph - N/A   Overcast
8:35 AM 33.8 °F 27.0 °F 31.1 °F 90% 29.99 in 5.0 mi SSE 8.1 mph - N/A   Overcast
8:55 AM 34.5 °F 27.3 °F 31.8 °F 90% 29.99 in 5.0 mi SSE 9.2 mph - N/A   Overcast
9:35 AM 35.6 °F 28.6 °F 31.8 °F 86% 29.98 in 5.0 mi SSE 9.2 mph - N/A   Overcast
9:55 AM 35.8 °F 29.4 °F 31.8 °F 86% 29.98 in 5.0 mi SSE 8.1 mph - N/A   Overcast
10:15 AM 36.5 °F 29.7 °F 32.0 °F 84% 29.97 in 5.0 mi SSE 9.2 mph - N/A   Overcast
10:35 AM 36.7 °F 31.2 °F 32.0 °F 83% 29.96 in 5.0 mi SSE 6.9 mph - N/A   Haze
10:55 AM 37.6 °F 32.3 °F 32.4 °F 81% 29.96 in 7.0 mi South 6.9 mph - N/A   Overcast
11:15 AM 38.3 °F 33.2 °F 32.9 °F 81% 29.96 in 7.0 mi SSW 6.9 mph - N/A Rain Light Rain
11:35 AM 37.6 °F 32.3 °F 33.6 °F 86% 29.95 in 4.0 mi South 6.9 mph - N/A Rain Light Rain
11:55 AM 38.3 °F 31.4 °F 34.7 °F 87% 29.94 in 4.0 mi South 10.4 mph - N/A   Light Drizzle
12:15 PM 38.3 °F 30.9 °F 34.7 °F 87% 29.94 in 4.0 mi South 11.5 mph - N/A Rain Light Rain
12:35 PM 38.3 °F 31.9 °F 34.9 °F 87% 29.93 in 3.0 mi South 9.2 mph - 0.01 in Rain Light Rain
1:15 PM 37.6 °F 29.6 °F 34.9 °F 90% 29.90 in 2.5 mi South 12.7 mph - 0.01 in Rain Light Rain
1:35 PM 37.9 °F 30.0 °F 35.2 °F 90% 29.89 in 2.0 mi SSE 12.7 mph - 0.01 in Rain Light Rain
1:55 PM 38.3 °F 30.9 °F 35.6 °F 90% 29.89 in 2.5 mi SSE 11.5 mph - 0.02 in Rain Light Rain
2:15 PM 38.3 °F 31.4 °F 35.6 °F 90% 29.88 in 2.0 mi SSE 10.4 mph - N/A   Light Drizzle
2:35 PM 38.3 °F 31.4 °F 35.6 °F 90% 29.88 in 2.5 mi SSE 10.4 mph - N/A   Overcast
2:55 PM 38.3 °F 30.9 °F 35.6 °F 90% 29.88 in 2.0 mi SSE 11.5 mph - N/A   Overcast
3:35 PM 38.3 °F 31.4 °F 35.8 °F 91% 29.88 in 1.8 mi SSE 10.4 mph - 0.01 in Rain Light Rain
3:55 PM 38.3 °F 31.4 °F 35.6 °F 90% 29.88 in 2.0 mi South 10.4 mph - 0.01 in Rain Light Rain
4:15 PM 38.3 °F 31.9 °F 35.8 °F 91% 29.88 in 2.0 mi SSE 9.2 mph - N/A Rain Light Rain
4:35 PM 38.5 °F 32.1 °F 36.0 °F 91% 29.88 in 1.5 mi SSE 9.2 mph - 0.01 in Rain Light Rain
4:55 PM 38.5 °F 32.7 °F 36.0 °F 91% 29.88 in 2.5 mi SSE 8.1 mph - 0.02 in Rain Light Rain
5:15 PM 38.5 °F 31.6 °F 36.0 °F 91% 29.88 in 2.5 mi SSE 10.4 mph - N/A Rain Light Rain
5:35 PM 38.5 °F 32.1 °F 36.0 °F 91% 29.88 in 2.5 mi SSE 9.2 mph - 0.01 in Rain Light Rain
5:55 PM 38.7 °F 32.9 °F 36.1 °F 91% 29.88 in 2.0 mi SSE 8.1 mph - 0.01 in Rain Light Rain
6:15 PM 38.7 °F 32.4 °F 36.3 °F 91% 29.88 in 2.0 mi SSE 9.2 mph - N/A   Light Drizzle
6:35 PM 38.8 °F 33.2 °F 36.5 °F 91% 29.88 in 2.0 mi SSE 8.1 mph - 0.01 in Rain Rain
6:55 PM 39.2 °F 33.6 °F 36.5 °F 90% 29.88 in 2.0 mi SSE 8.1 mph - 0.01 in   Light Drizzle
7:15 PM 39.2 °F 34.2 °F 36.5 °F 90% 29.88 in 1.8 mi SE 6.9 mph - N/A Rain Light Rain
7:35 PM 39.2 °F 34.2 °F 36.7 °F 91% 29.87 in 1.5 mi SSE 6.9 mph - 0.01 in Rain Light Rain
8:15 PM 39.4 °F 33.8 °F 36.9 °F 91% 29.87 in 1.5 mi SSE 8.1 mph - N/A   Light Drizzle
8:35 PM 39.4 °F 34.5 °F 36.9 °F 91% 29.87 in 1.2 mi SE 6.9 mph - 0.01 in   Light Drizzle
8:55 PM 39.4 °F 33.8 °F 36.9 °F 91% 29.87 in 1.2 mi SSE 8.1 mph - 0.01 in Rain Light Rain
9:15 PM 39.6 °F 34.7 °F 37.0 °F 91% 29.87 in 1.2 mi SSE 6.9 mph - N/A   Light Drizzle
9:35 PM 39.9 °F 35.8 °F 37.4 °F 91% 29.87 in 1.2 mi SSE 5.8 mph - N/A   Light Drizzle
9:55 PM 40.1 °F 36.1 °F 37.6 °F 91% 29.87 in 1.0 mi SSE 5.8 mph - N/A   Overcast
10:15 PM 40.1 °F 36.1 °F 37.6 °F 91% 29.87 in 1.0 mi SSE 5.8 mph - 0.01 in   Overcast
10:35 PM 40.1 °F 36.9 °F 37.6 °F 91% 29.86 in 1.0 mi SE 4.6 mph - 0.01 in   Overcast
10:55 PM 40.1 °F 36.1 °F 37.6 °F 91% 29.87 in 0.8 mi SSE 5.8 mph - 0.01 in   Overcast
11:15 PM 40.1 °F - 37.6 °F 91% 29.87 in 0.8 mi Calm Calm - N/A   Overcast
11:35 PM 40.1 °F 36.9 °F 37.8 °F 91% 29.86 in 0.8 mi SE 4.6 mph - N/A   Overcast
11:55 PM 40.1 °F 36.9 °F 37.8 °F 91% 29.86 in 0.5 mi SE 4.6 mph - N/A Fog Fog